Weather History for Sigonella, Italy

Change the Weather History Date:

Thursday, November 1, 2012

  Actual Average Record
Temperature  
Mean Temperature 67 °F -  
Max Temperature 76 °F 69 °F 81 °F (2013)
Min Temperature 58 °F 49 °F 44 °F (2006)
Cooling Degree Days 2    
Growing Degree Days 17 (Base 50)    
Moisture  
Dew Point 57 °F    
Average Humidity 77    
Maximum Humidity 100    
Minimum Humidity 33    
Precipitation  
Precipitation 0.00 in 0.06 in - ()
Sea Level Pressure  
Sea Level Pressure 29.67 in    
Wind  
Wind Speed 11 mph ()    
Max Wind Speed 25 mph    
Max Gust Speed 38 mph    
Visibility 6.5 miles    
Events Rain , Thunderstorm    
Averages and records for this station are not official NWS values.
T = Trace of Precipitation, MM = Missing Value Source: Averaged Metar Reports

Daily Weather History Graph

Daily Weather History Graph

Search for Another Location

Airport:

Trip Planner

Search our weather history database for the weather conditions in past years. The results will help you decide how hot, cold, wet, or windy it might be!

Date:

Astronomy

Nov. 01, 2012 Rise Set
Actual Time 6:25 AM CET 5:01 PM CET
Civil Twilight 5:58 AM CET 5:29 PM CET
Nautical Twilight 5:27 AM CET 5:59 PM CET
Astronomical Twilight 4:56 AM CET 6:30 PM CET
Moon 6:48 PM CET (11/1) 8:40 AM CET (11/1)
Length of Visible Light 11h 30m
Length of Day
10h 36m
Waning Gibbous, 94% of the Moon is Illuminated
Nov 1
Waning Gibbous
Nov 7
Last Quarter
Nov 13
New
Nov 20
First Quarter
Nov 28
Full

Hourly Weather History & Observations

Time (CET) Temp. Dew Point Humidity Pressure Visibility Wind Dir Wind Speed Gust Speed Precip Events Conditions
12:33 AM 62.6 °F 62.6 °F 100% 29.56 in 6.2 mi WNW 25.3 mph 38.0 mph N/A   Scattered Clouds
12:55 AM 60.8 °F 60.8 °F 100% 29.59 in 2.5 mi West 13.8 mph - N/A Rain , Thunderstorm Thunderstorms and Rain
1:00 AM 61 °F 61 °F 100% 29.60 in 2 mi West 13.8 mph - - Rain , Thunderstorm Thunderstorms and Rain
1:55 AM 60.8 °F 60.8 °F 100% 29.56 in 6.2 mi SW 4.6 mph - N/A Rain Light Rain
2:55 AM 60.8 °F 60.8 °F 100% 29.56 in 6.2 mi SSW 2.3 mph - N/A   Mostly Cloudy
3:55 AM 59.0 °F 59.0 °F 100% 29.56 in 6.2 mi West 1.2 mph - N/A   Scattered Clouds
4:00 AM 59 °F 59 °F 100% 29.58 in 12 mi West 1.2 mph - -   Partly Cloudy
4:55 AM 59.0 °F 59.0 °F 100% 29.56 in 6.2 mi West 13.8 mph - N/A   Partly Cloudy
5:55 AM 59.0 °F 59.0 °F 100% 29.56 in 6.2 mi West 9.2 mph - N/A   Scattered Clouds
6:55 AM 60.8 °F 59.0 °F 94% 29.59 in 6.2 mi West 11.5 mph - N/A   Scattered Clouds
7:00 AM 61 °F 59 °F 92% 29.61 in 16 mi West 11.5 mph - -   Partly Cloudy
7:55 AM 60.8 °F 57.2 °F 88% 29.62 in 6.2 mi West 16.1 mph - N/A   Scattered Clouds
8:55 AM 64.4 °F 59.0 °F 83% 29.62 in 6.2 mi WSW 15.0 mph - N/A   Scattered Clouds
9:55 AM 71.6 °F 57.2 °F 60% 29.65 in 6.2 mi West 16.1 mph - N/A   Scattered Clouds
10:00 AM 72 °F 57 °F 50% 29.66 in 6 mi West 16.1 mph - -   Partly Cloudy
10:55 AM 73.4 °F 55.4 °F 53% 29.65 in 6.2 mi West 15.0 mph - N/A   Partly Cloudy
11:55 AM 73.4 °F 53.6 °F 50% 29.65 in 6.2 mi West 20.7 mph - N/A   Partly Cloudy
12:55 PM 75.2 °F 51.8 °F 44% 29.65 in - West 19.6 mph - N/A   Clear
1:00 PM 75 °F 51 °F 33% 29.66 in 6 mi West 19.6 mph - -  
1:55 PM 75.2 °F 51.8 °F 44% 29.65 in 6.2 mi West 15.0 mph - N/A   Partly Cloudy
2:55 PM 77.0 °F 51.8 °F 41% 29.65 in 6.2 mi West 16.1 mph - N/A   Scattered Clouds
3:55 PM 75.2 °F 51.8 °F 44% 29.68 in 6.2 mi West 9.2 mph - N/A   Scattered Clouds
4:00 PM 75 °F 52 °F 34% 29.69 in 6 mi West 9.2 mph - -   Partly Cloudy
4:55 PM 71.6 °F 53.6 °F 53% 29.68 in 6.2 mi West 6.9 mph - N/A   Scattered Clouds
5:55 PM 66.2 °F 59.0 °F 78% 29.71 in 6.2 mi West 6.9 mph - N/A   Scattered Clouds
6:55 PM 62.6 °F 57.2 °F 82% 29.74 in 6.2 mi WNW 5.8 mph - N/A   Scattered Clouds
7:00 PM 63 °F 58 °F 78% 29.76 in 6 mi WNW 5.8 mph - -   Partly Cloudy
7:55 PM 60.8 °F 57.2 °F 88% 29.77 in 6.2 mi WNW 4.6 mph - N/A   Partly Cloudy
8:55 PM 59.0 °F 55.4 °F 88% 29.80 in 6.2 mi NW 9.2 mph - N/A   Partly Cloudy
9:55 PM 60.8 °F 55.4 °F 82% 29.83 in 6.2 mi WNW 11.5 mph - N/A   Partly Cloudy
10:00 PM 60 °F 56 °F 82% 29.84 in 9 mi WNW 11.5 mph - -   Scattered Clouds
10:55 PM 59.0 °F 57.2 °F 94% 29.83 in - West 9.2 mph - N/A   Clear
11:55 PM 59.0 °F 57.2 °F 94% 29.83 in - NW 6.9 mph - N/A   Clear